Location: Cranford
(40.6578°N, 74.3024°W)
Time: 13:59:36
(UTC+00:00)

STARLINK-5280 - Pass Details

Date: 08 December 2022
Orbit: 539 x 540 km, 53.2° (Epoch: 27 January)

Event Time Altitude Azimuth Distance (km) Brightness Sun altitude
Rises 22:14:03 0° 241° (WSW) 2,681 ? -8.4°
Reaches altitude 10° 22:16:18 10° 246° (WSW) 1,793 ? -8.7°
Maximum altitude 22:20:18 55° 325° (NW) 648 ? -9.4°
Enters shadow 22:24:05 11° 43° (NE) 1,710 ? -10.1°
